TimeCST,TemperatureF,Dew PointF,Humidity,Sea Level PressureIn,VisibilityMPH,Wind Direction,Wind SpeedMPH,Gust SpeedMPH,PrecipitationIn,Events,Conditions,WindDirDegrees,DateUTC
12:43 AM,77.0,69.8,78,29.95,8.0,Calm,Calm,-,N/A,,Clear,0,2013-03-05 06:43:00
1:43 AM,77.0,71.6,83,29.95,8.0,Calm,Calm,-,N/A,,Clear,0,2013-03-05 07:43:00
2:45 AM,72,70,92,29.93,6,North,2.2,,,,,0,2013-03-05 08:45:00
2:45 AM,75.2,68.0,78,29.93,8.0,Calm,Calm,-,N/A,,Clear,0,2013-03-05 08:45:00
3:43 AM,75.2,66.2,73,29.94,8.0,Calm,Calm,-,N/A,,Clear,0,2013-03-05 09:43:00
4:43 AM,73.4,66.2,78,29.93,8.0,Calm,Calm,-,N/A,,Clear,0,2013-03-05 10:43:00
5:50 AM,70,67,86,29.94,6,North,4.5,,,,Partly Cloudy,0,2013-03-05 11:50:00
5:50 AM,73.4,66.2,78,29.91,8.0,Calm,Calm,-,N/A,,Clear,0,2013-03-05 11:50:00
6:43 AM,73.4,66.2,78,29.95,7.0,Calm,Calm,-,N/A,,Clear,0,2013-03-05 12:43:00
7:47 AM,73.4,66.2,78,29.97,6.0,Calm,Calm,-,N/A,,Clear,0,2013-03-05 13:47:00
8:47 AM,75.2,64.4,69,29.96,6.0,Calm,Calm,-,N/A,,Clear,0,2013-03-05 14:47:00
8:50 AM,76,67,66,29.98,12,NNW,2.2,,,,,330,2013-03-05 14:50:00
9:45 AM,77.0,66.2,69,29.98,7.0,Calm,Calm,-,N/A,,Clear,0,2013-03-05 15:45:00
10:48 AM,82.4,66.2,58,29.98,7.0,WSW,6.9,-,N/A,,Clear,240,2013-03-05 16:48:00
11:43 AM,87.8,71.6,58,29.96,7.0,WSW,6.9,-,N/A,,Clear,240,2013-03-05 17:43:00
11:50 AM,83,72,61,29.96,12,SW,6.7,,,,,230,2013-03-05 17:50:00
12:42 PM,87.8,73.4,62,29.92,7.0,WSW,6.9,-,N/A,,Clear,240,2013-03-05 18:42:00
1:44 PM,86.0,73.4,66,29.89,7.0,SW,9.2,-,N/A,,Clear,230,2013-03-05 19:44:00
2:42 PM,86.0,73.4,66,29.87,7.0,WSW,8.1,-,N/A,,Clear,240,2013-03-05 20:42:00
2:50 PM,85,73,59,29.88,12,WSW,6.7,,,,,250,2013-03-05 20:50:00
3:42 PM,87.8,73.4,62,29.86,8.0,WSW,8.1,-,N/A,,Clear,240,2013-03-05 21:42:00
4:42 PM,86.0,73.4,66,29.85,7.0,WSW,11.5,-,N/A,,Clear,250,2013-03-05 22:42:00
5:43 PM,84.2,71.6,66,29.83,8.0,WSW,11.5,-,N/A,,Clear,240,2013-03-05 23:43:00
5:50 PM,84,70,53,29.86,12,SW,6.7,,,,,230,2013-03-05 23:50:00
6:43 PM,82.4,73.4,74,29.87,8.0,WSW,9.2,-,N/A,,Clear,240,2013-03-06 00:43:00
7:43 PM,80.6,73.4,79,29.87,8.0,Calm,Calm,-,N/A,,Clear,0,2013-03-06 01:43:00
8:43 PM,78.8,71.6,78,29.84,8.0,Calm,Calm,-,N/A,,Clear,0,2013-03-06 02:43:00
8:50 PM,76,71,82,29.93,6,SSW,2.2,,,,,200,2013-03-06 02:50:00
9:45 PM,78.8,71.6,78,29.84,8.0,Calm,Calm,-,N/A,,Clear,0,2013-03-06 03:45:00
10:45 PM,77.0,71.6,83,29.96,8.0,Calm,Calm,-,N/A,,Clear,0,2013-03-06 04:45:00
11:45 PM,77.0,71.6,83,29.95,8.0,Calm,Calm,-,N/A,,Clear,0,2013-03-06 05:45:00
11:50 PM,74,71,87,29.99,6,NW,2.2,,,,,320,2013-03-06 05:50:00